Weather History for Augusta, ME

Change the Weather History Date:

Sunday, April 6, 2014

  Actual Average Record
Temperature  
Mean Temperature 42 °F 40 °F  
Max Temperature 50 °F 49 °F 62 °F (1999)
Min Temperature 34 °F 31 °F 23 °F (2003)
Degree Days  
Heating Degree Days 23 25  
Month to date heating degree days 162 157  
Since 1 July heating degree days 6916 6526  
Cooling Degree Days 0 0  
Month to date cooling degree days 0 0  
Year to date cooling degree days 0 0  
Moisture  
Dew Point 18 °F    
Average Humidity 41    
Maximum Humidity 61    
Minimum Humidity 21    
Precipitation  
Precipitation 0.00 in 0.12 in 1.11 in (2009)
Month to date precipitation 0.54 0.75  
Year to date precipitation 8.47 9.16  
Sea Level Pressure  
Sea Level Pressure 29.99 in    
Wind  
Wind Speed 11 mph (WNW)    
Max Wind Speed 25 mph    
Max Gust Speed 39 mph    
Visibility 10 miles    
Events      
T = Trace of Precipitation, MM = Missing Value Source: NWS Daily Summary

Daily Weather History Graph

Daily Weather History Graph

Search for Another Location

Airport:

Trip Planner

Search our weather history database for the weather conditions in past years. The results will help you decide how hot, cold, wet, or windy it might be!

Date:

Astronomy

Apr. 06, 2014 Rise Set
Actual Time 6:11 AM EDT 7:12 PM EDT
Civil Twilight 5:41 AM EDT 7:42 PM EDT
Nautical Twilight 5:06 AM EDT 8:17 PM EDT
Astronomical Twilight 4:29 AM EDT 8:54 PM EDT
Moon 11:02 AM EDT (4/6) 1:13 AM EDT (4/6)
Length of Visible Light 14h 00m
Length of Day
13h 01m
Waxing Crescent, 43% of the Moon is Illuminated
Apr 6
Waxing Crescent
Apr 7
First Quarter
Apr 15
Full
Apr 22
Last Quarter
Apr 29
New

Hourly Weather History & Observations

Time (EDT) Temp. Windchill Dew Point Humidity Pressure Visibility Wind Dir Wind Speed Gust Speed Precip Events Conditions
12:53 AM 36.0 °F 29.6 °F 21.9 °F 57% 29.82 in 10.0 mi WNW 8.1 mph - N/A   Overcast
1:53 AM 36.0 °F 25.0 °F 21.0 °F 55% 29.83 in 10.0 mi WNW 20.7 mph 34.5 mph N/A   Overcast
2:53 AM 35.1 °F 24.8 °F 21.0 °F 57% 29.84 in 10.0 mi WNW 17.3 mph 25.3 mph N/A   Overcast
3:53 AM 35.1 °F 26.9 °F 21.9 °F 59% 29.86 in 10.0 mi WNW 11.5 mph 24.2 mph N/A   Overcast
4:53 AM 35.1 °F 25.9 °F 21.0 °F 57% 29.88 in 10.0 mi WNW 13.8 mph 24.2 mph N/A   Overcast
5:53 AM 34.0 °F 24.6 °F 21.0 °F 59% 29.91 in 10.0 mi WNW 13.8 mph 24.2 mph N/A   Overcast
6:53 AM 34.0 °F 27.2 °F 21.0 °F 59% 29.95 in 10.0 mi WNW 8.1 mph - N/A   Overcast
7:53 AM 34.0 °F 25.0 °F 19.9 °F 56% 29.98 in 10.0 mi WNW 12.7 mph 20.7 mph N/A   Overcast
8:53 AM 36.0 °F 27.1 °F 19.0 °F 50% 30.00 in 10.0 mi West 13.8 mph 21.9 mph N/A   Mostly Cloudy
9:53 AM 37.0 °F 28.5 °F 18.0 °F 46% 30.01 in 10.0 mi WNW 13.8 mph 27.6 mph N/A   Clear
10:53 AM 39.0 °F 30.3 °F 18.0 °F 43% 30.01 in 10.0 mi West 16.1 mph 29.9 mph N/A   Clear
11:53 AM 41.0 °F 33.1 °F 19.0 °F 41% 30.02 in 10.0 mi WNW 15.0 mph 23.0 mph N/A   Clear
12:53 PM 42.1 °F 33.9 °F 17.1 °F 37% 30.02 in 10.0 mi WNW 17.3 mph 26.5 mph N/A   Clear
1:53 PM 45.0 °F 38.9 °F 16.0 °F 31% 30.01 in 10.0 mi West 12.7 mph 24.2 mph N/A   Clear
2:53 PM 46.9 °F - 15.1 °F 28% 30.00 in 10.0 mi WNW 13.8 mph 23.0 mph N/A   Clear
3:53 PM 48.9 °F - 12.9 °F 24% 30.01 in 10.0 mi WNW 13.8 mph 24.2 mph N/A   Clear
4:53 PM 50.0 °F - 12.9 °F 23% 30.01 in 10.0 mi WNW 8.1 mph 20.7 mph N/A   Clear
5:53 PM 48.9 °F - 14.0 °F 25% 30.03 in 10.0 mi WNW 9.2 mph 17.3 mph N/A   Clear
6:53 PM 48.0 °F - 14.0 °F 26% 30.05 in 10.0 mi WNW 10.4 mph - N/A   Clear
7:53 PM 45.0 °F 41.8 °F 14.0 °F 29% 30.06 in 10.0 mi West 5.8 mph - N/A   Clear
8:53 PM 44.1 °F 39.5 °F 16.0 °F 32% 30.09 in 10.0 mi West 8.1 mph - N/A   Clear
9:53 PM 43.0 °F - 16.0 °F 34% 30.10 in 10.0 mi Calm Calm - N/A   Clear
10:53 PM 42.1 °F - 16.0 °F 35% 30.13 in 10.0 mi Calm Calm - N/A   Clear
11:53 PM 42.1 °F - 17.1 °F 37% 30.14 in 10.0 mi Calm Calm - N/A   Clear